Lake Charles Regional, LA

10:32 AM CDT on July 26, 2017 (GMT -0500)
Lake Charles Regional

Weather History for KLCH - July, 2013

Change the Weather History Date:

Saturday, July 27, 2013

  Actual Average Record
Temperature  
Mean Temperature 86 °F 83 °F  
Max Temperature 93 °F 92 °F 99 °F (1930)
Min Temperature 78 °F 75 °F 64 °F (1911)
Degree Days  
Heating Degree Days 0 0  
Month to date heating degree days 0 0  
Since 1 June heating degree days 0 0  
Since 1 July heating degree days 0 0  
Cooling Degree Days 21 18  
Month to date cooling degree days 499 483  
Year to date cooling degree days 1529 1501  
Since 1 June cooling degree days 1044 963  
Growing Degree Days 36 (Base 50)    
Moisture  
Dew Point 75 °F    
Average Humidity 74    
Maximum Humidity 91    
Minimum Humidity 56    
Precipitation  
Precipitation 0.51 in 0.17 in 3.42 in (1943)
Month to date precipitation 1.71 4.94  
Year to date precipitation 35.29 32.67  
Snow  
Snow 0.00 in 0.00 in 0.00 in ()
Month to date snowfall 0.0 0.0  
Since 1 June snowfall 0.0 0.0  
Since 1 July snowfall 0.0 0.0  
Snow Depth 0.00 in    
Sea Level Pressure  
Sea Level Pressure 29.93 in    
Wind  
Wind Speed 7 mph (WSW)    
Max Wind Speed 16 mph    
Max Gust Speed 26 mph    
Visibility 9 miles    
Events Rain    
T = Trace of Precipitation, MM = Missing Value Source: NWS Daily Summary

Daily Weather History Graph

Daily Weather History Graph

Search for Another Location

Airport or City:

Trip Planner

Search our weather history database for the weather conditions in past years. The results will help you decide how hot, cold, wet, or windy it might be!

Date:

Astronomy

Jul. 27, 2013 Rise Set
Actual Time 6:28 AM CDT 8:09 PM CDT
Civil Twilight 6:02 AM CDT 8:35 PM CDT
Nautical Twilight 5:30 AM CDT 9:07 PM CDT
Astronomical Twilight 4:57 AM CDT 9:40 PM CDT
Moon 11:28 PM CDT (7/27) 11:40 AM CDT (7/27)
Length of Visible Light 14h 33m
Length of Day
13h 40m
Waning Gibbous, 70% of the Moon is Illuminated
Jul 27
Waning Gibbous
Jul 29
Last Quarter
Aug 6
New
Aug 14
First Quarter
Aug 20
Full

Hourly Weather History & Observations

Time (CDT) Temp. Heat Index Dew Point Humidity Pressure Visibility Wind Dir Wind Speed Gust Speed Precip Events Conditions
12:53 AM 82.9 °F 90.8 °F 75.9 °F 79% 29.96 in 10.0 mi SW 9.2 mph - N/A   Partly Cloudy
1:53 AM 82.0 °F 88.6 °F 75.0 °F 79% 29.96 in 10.0 mi SW 6.9 mph - N/A   Clear
2:53 AM 82.9 °F 90.2 °F 75.0 °F 77% 29.96 in 10.0 mi SW 9.2 mph - N/A   Clear
3:53 AM 82.9 °F 90.8 °F 75.9 °F 79% 29.96 in 10.0 mi WSW 8.1 mph - N/A   Clear
4:53 AM 82.9 °F 90.8 °F 75.9 °F 79% 29.94 in 10.0 mi SW 9.2 mph 16.1 mph N/A   Clear
5:53 AM 82.9 °F 90.8 °F 75.9 °F 79% 29.95 in 10.0 mi WSW 8.1 mph - 0.00 in Rain Light Rain
6:53 AM 82.0 °F 89.4 °F 75.9 °F 82% 29.94 in 10.0 mi SW 12.7 mph 18.4 mph 0.00 in   Scattered Clouds
7:32 AM 80.6 °F 86.2 °F 75.2 °F 84% 29.93 in 10.0 mi WSW 6.9 mph - 0.00 in   Mostly Cloudy
7:53 AM 82.0 °F 90.2 °F 77.0 °F 85% 29.95 in 10.0 mi WSW 5.8 mph - 0.00 in   Mostly Cloudy
8:07 AM 82.4 °F 89.5 °F 75.2 °F 79% 29.92 in 10.0 mi West 5.8 mph - N/A   Partly Cloudy
8:53 AM 84.0 °F 91.9 °F 75.0 °F 74% 29.95 in 10.0 mi West 9.2 mph - N/A   Mostly Cloudy
9:53 AM 87.1 °F 95.4 °F 73.9 °F 65% 29.95 in 10.0 mi West 12.7 mph 23.0 mph N/A   Partly Cloudy
10:53 AM 87.1 °F 92.8 °F 71.1 °F 59% 29.95 in 10.0 mi West 10.4 mph 17.3 mph N/A   Mostly Cloudy
11:53 AM 89.1 °F 97.0 °F 73.0 °F 59% 29.95 in 10.0 mi Variable 6.9 mph - N/A   Mostly Cloudy
12:53 PM 89.1 °F 96.0 °F 72.0 °F 57% 29.95 in 10.0 mi WSW 9.2 mph - N/A   Mostly Cloudy
1:53 PM 90.0 °F 99.0 °F 73.9 °F 59% 29.94 in 10.0 mi SW 10.4 mph - N/A   Mostly Cloudy
2:53 PM 89.1 °F 98.0 °F 73.9 °F 61% 29.93 in 10.0 mi North 13.8 mph - N/A   Mostly Cloudy
3:53 PM 91.9 °F 101.3 °F 73.9 °F 55% 29.91 in 10.0 mi NW 10.4 mph - N/A   Clear
4:53 PM 91.9 °F 101.3 °F 73.9 °F 55% 29.89 in 10.0 mi NNW 5.8 mph - N/A   Scattered Clouds
5:53 PM 86.0 °F 95.1 °F 75.0 °F 70% 29.90 in 10.0 mi Variable 5.8 mph - N/A   Overcast
6:02 PM 86.0 °F 93.4 °F 73.4 °F 66% 29.88 in 10.0 mi SW 6.9 mph - N/A   Overcast
6:44 PM 84.2 °F 90.9 °F 73.4 °F 70% 29.88 in 10.0 mi WSW 3.5 mph - N/A   Mostly Cloudy
6:53 PM 84.9 °F 92.1 °F 73.9 °F 69% 29.91 in 10.0 mi SW 5.8 mph - N/A   Mostly Cloudy
7:00 PM 84.2 °F 90.9 °F 73.4 °F 70% 29.89 in 10.0 mi SW 9.2 mph - N/A   Overcast
7:17 PM 80.6 °F 85.4 °F 73.4 °F 79% 29.90 in 1.5 mi WSW 9.2 mph - 0.01 in Rain Heavy Rain
7:25 PM 78.8 °F - 73.4 °F 83% 29.89 in 0.8 mi SSE 3.5 mph - 0.30 in Rain Rain
7:29 PM 78.8 °F - 73.4 °F 83% 29.89 in 3.0 mi Calm Calm - 0.30 in Rain Light Rain
7:35 PM 78.8 °F - 73.4 °F 83% 29.90 in 1.8 mi Calm Calm - 0.30 in Rain Light Rain
7:47 PM 78.8 °F - 73.4 °F 83% 29.90 in 3.0 mi North 4.6 mph - 0.41 in Rain Rain
7:53 PM 79.0 °F - 75.0 °F 88% 29.92 in 2.5 mi Calm Calm - 0.44 in Rain Heavy Rain
8:01 PM 80.6 °F 86.2 °F 75.2 °F 84% 29.89 in 5.0 mi Calm Calm - 0.07 in Rain Light Rain
8:53 PM 79.0 °F - 75.9 °F 90% 29.93 in 10.0 mi Calm Calm - 0.07 in   Overcast
9:25 PM 80.6 °F 87.1 °F 77.0 °F 89% 29.91 in 10.0 mi Calm Calm - N/A   Overcast
9:39 PM 80.6 °F 86.2 °F 75.2 °F 84% 29.91 in 10.0 mi Calm Calm - N/A   Mostly Cloudy
9:53 PM 79.0 °F - 75.9 °F 90% 29.94 in 10.0 mi Calm Calm - N/A   Partly Cloudy
10:53 PM 78.1 °F - 75.9 °F 93% 29.95 in 10.0 mi Calm Calm - N/A   Scattered Clouds
11:53 PM 79.0 °F - 73.9 °F 84% 29.95 in 10.0 mi NE 8.1 mph - N/A   Overcast